Theta_e
346 348 358 359 360 361 363 364 365 363 363 362 362 361 360 362 361 361 361 359 360 362 362 361 362 362 363 364 363 363 364 365 365 364 362 360 360 361 362 363 359 355 360
349 353 361 362 361 362 363 365 365 363 364 362 361 360 362 363 359 361 360 358 359 360 361 361 361 362 363 363 364 363 362 363 361 364 362 362 361 361 362 360 358 357 359
350 356 357 363 361 362 364 365 364 363 363 361 361 361 363 360 361 361 358 356 359 358 358 361 359 360 361 362 364 362 361 363 362 364 362 355 355 361 361 359 359 358 357
351 352 355 363 363 362 364 364 364 363 362 362 362 363 362 360 361 361 359 356 357 358 360 358 360 360 361 361 361 361 360 359 359 361 352 351 352 360 359 357 359 358 356
349 353 356 364 366 364 364 365 365 363 362 362 361 362 359 361 361 361 361 359 356 358 360 359 359 360 359 358 358 358 358 359 361 357 350 349 350 357 360 361 358 355 357
353 356 363 366 364 364 365 364 364 363 362 362 361 362 360 361 361 361 360 360 359 359 359 358 357 356 357 357 357 357 357 357 358 352 354 356 351 360 358 358 358 357 358
350 355 361 366 366 364 364 363 362 362 362 362 363 361 362 361 361 361 360 359 359 358 358 358 357 357 356 356 356 356 361 362 351 352 352 352 354 360 355 354 356 358 357
349 356 357 365 366 366 364 362 362 362 362 362 364 362 362 362 361 359 359 360 359 358 358 359 358 357 356 357 355 357 360 362 353 351 351 352 359 358 355 354 353 351 351
350 352 356 358 359 360 362 361 362 363 362 363 363 362 361 361 361 360 359 359 359 359 358 357 356 357 356 355 357 359 360 360 350 351 352 354 361 357 356 357 358 358 357
351 351 354 352 354 355 357 364 362 362 363 362 361 362 362 362 361 361 363 362 359 358 357 357 357 359 357 358 359 360 360 360 349 351 353 355 360 358 356 359 359 358 357
349 350 352 350 352 352 355 359 363 363 363 362 362 362 362 352 354 356 360 362 359 358 357 358 359 358 356 355 358 359 358 350 348 350 352 357 360 358 358 358 357 356 357
344 347 351 347 351 353 356 355 354 357 356 356 356 350 339 349 353 355 359 362 359 359 358 359 355 355 340 344 349 352 352 345 347 350 353 359 360 358 357 357 357 357 353
343 344 346 346 352 349 351 354 355 353 354 355 353 349 347 353 347 351 350 352 351 358 350 352 348 346 345 344 348 349 351 344 347 348 356 361 359 357 357 357 356 357 356
342 342 345 347 349 348 352 354 354 352 354 353 353 352 353 349 338 344 347 351 352 350 345 339 344 348 349 352 349 350 347 346 348 350 355 359 359 358 357 356 355 355 354
341 344 347 350 348 349 351 353 351 351 354 349 352 347 349 348 344 347 348 349 347 348 348 346 346 349 351 349 349 346 342 347 347 350 350 359 360 359 358 355 353 355 353
343 345 346 345 345 345 354 353 350 351 352 352 350 350 352 348 350 351 351 347 347 341 347 348 344 347 347 348 345 344 345 346 347 347 350 353 360 360 358 353 352 352 352
344 347 347 349 351 349 351 351 349 352 358 354 354 352 351 347 353 351 348 346 347 345 347 348 344 346 341 345 344 345 344 345 345 345 349 350 354 358 357 355 355 354 351
343 343 345 350 350 347 350 350 348 350 353 354 355 351 348 343 354 355 354 350 353 351 349 347 344 342 343 340 340 340 345 341 343 344 347 350 351 352 358 359 360 358 356
343 342 341 346 348 347 350 349 351 352 350 352 354 352 349 355 358 358 355 352 355 349 351 348 340 341 341 341 340 342 345 343 342 348 345 345 347 348 351 359 359 360 357
344 343 343 347 347 347 349 347 351 347 351 352 351 349 357 356 356 355 355 353 352 349 349 347 341 343 339 342 342 340 340 341 339 341 345 347 347 347 347 348 354 355 360
343 342 343 345 346 351 347 346 346 345 348 345 352 353 357 358 355 354 355 352 352 342 344 350 349 345 344 340 333 337 337 339 342 339 340 340 343 348 349 345 347 349 352
340 344 343 347 347 349 347 347 346 345 349 349 353 358 357 357 356 354 349 352 350 347 348 344 345 342 343 339 335 337 330 330 332 338 339 339 338 344 349 349 350 349 347
338 342 346 348 347 349 346 347 348 349 346 350 348 353 353 358 357 354 354 353 352 352 347 349 347 344 338 341 339 336 328 327 330 336 333 337 338 338 342 343 346 348 349
340 343 348 349 348 347 349 343 343 344 342 347 351 351 354 355 356 356 353 354 354 352 347 348 352 344 341 338 336 336 339 337 329 327 337 338 338 338 339 343 345 347 347
342 341 347 350 348 347 349 344 344 343 344 347 344 348 351 354 357 358 356 355 355 352 351 351 350 347 345 342 338 333 336 337 335 332 326 333 339 339 341 338 343 346 349
342 342 343 349 346 345 346 349 344 342 344 348 346 348 351 354 356 354 355 356 357 354 352 351 351 350 351 350 348 341 333 332 331 333 331 332 333 337 342 342 342 344 349
Wind_Speed
6 9 9 7 9 9 8 9 10 11 11 13 13 13 13 13 14 13 13 13 12 13 13 13 13 13 14 14 13 13 14 14 15 17 17 17 16 13 17 19 18 14 18
11 11 11 10 11 10 10 12 12 11 12 12 11 12 12 13 13 14 13 13 13 12 12 14 13 13 12 13 12 11 12 13 14 17 18 18 18 18 18 19 18 14 17
14 11 10 11 12 13 13 13 13 13 12 11 10 11 13 12 12 12 14 13 13 12 13 13 13 13 11 12 12 10 10 11 14 14 18 9 10 18 19 18 17 17 18
15 10 9 11 12 13 13 12 12 12 11 10 10 12 12 12 11 13 13 13 13 12 12 15 14 11 11 10 10 9 9 8 9 14 6 8 11 17 17 17 17 17 17
14 12 11 14 12 13 13 13 12 12 11 10 10 11 12 11 11 12 12 14 14 13 14 14 13 11 9 9 8 8 8 7 12 15 10 8 6 13 16 16 16 15 15
15 13 14 14 15 13 13 13 12 12 12 11 11 11 11 12 11 12 12 13 13 13 13 12 11 9 7 7 9 6 3 4 15 12 11 11 6 16 16 15 16 14 15
14 11 11 15 15 15 13 13 13 12 12 12 11 11 11 11 11 11 11 12 12 13 12 12 11 8 5 6 6 5 7 15 11 10 9 6 6 15 15 15 14 15 14
16 11 11 14 14 14 14 13 13 13 13 11 11 11 10 11 11 10 10 11 11 11 12 11 9 7 4 5 3 6 7 15 13 10 8 5 10 14 15 15 14 14 14
16 11 9 8 12 14 13 12 12 13 12 11 11 11 10 10 11 10 10 9 10 10 9 8 6 6 5 3 6 9 11 9 9 7 9 4 11 14 13 13 13 12 11
15 12 10 7 7 7 5 11 12 11 12 12 11 11 10 10 10 11 8 9 10 10 9 7 5 5 4 5 7 6 6 12 8 8 5 5 11 13 12 12 12 12 11
13 13 12 10 7 8 6 8 11 12 11 10 9 10 8 3 6 8 9 10 11 10 8 8 8 5 2 6 7 3 6 2 5 5 3 10 11 12 12 11 11 10 11
17 15 14 12 9 10 8 6 6 6 4 5 5 6 2 3 5 7 8 11 11 10 8 8 6 5 4 3 2 4 2 4 4 5 3 10 12 12 11 10 9 10 9
19 13 15 14 12 7 8 5 4 3 3 4 6 5 4 2 2 4 1 3 3 6 3 4 2 2 3 1 3 2 2 5 3 3 6 10 11 12 11 10 8 9 8
18 16 14 14 12 7 7 6 6 5 5 4 5 6 8 2 3 3 2 7 3 2 4 5 3 3 5 4 4 5 8 7 4 3 5 11 10 11 11 9 8 8 7
12 17 12 10 8 7 6 5 5 5 5 4 5 11 8 5 3 5 2 4 3 3 3 3 4 5 4 5 5 5 8 8 8 4 2 12 10 11 11 9 8 6 6
18 16 13 12 8 8 4 11 6 4 5 5 4 4 7 3 5 11 7 4 7 7 4 3 4 3 4 4 1 6 9 7 8 7 4 5 10 9 10 9 9 8 7
16 18 14 11 8 7 3 5 6 6 4 5 5 5 5 3 4 9 7 5 5 7 6 4 5 3 2 3 3 1 3 7 6 8 6 4 5 10 10 10 10 9 8
16 15 14 11 8 8 4 3 5 4 4 4 5 3 4 3 1 3 5 5 5 7 6 7 3 4 1 2 1 4 3 5 8 8 6 6 6 6 9 12 11 10 10
15 14 11 12 9 7 5 3 4 5 5 3 6 4 4 4 2 3 4 5 5 5 5 4 1 2 2 2 3 4 4 4 4 8 8 7 8 5 5 11 12 11 11
16 14 10 12 11 8 5 3 1 3 4 5 4 4 5 4 4 3 3 5 5 3 1 2 3 2 2 3 2 3 3 4 4 4 8 8 7 8 7 6 6 6 12
16 14 12 12 12 8 3 3 1 4 4 2 4 6 6 5 5 5 3 3 3 4 3 3 2 1 1 2 2 3 2 2 6 5 4 5 7 10 8 6 5 4 6
18 14 11 15 12 9 5 3 3 3 2 4 5 5 6 6 6 5 3 1 3 3 4 3 3 1 1 1 3 1 1 4 2 4 3 4 5 5 7 7 7 7 6
20 15 12 16 13 9 8 3 2 1 0 3 4 4 5 7 6 6 4 3 4 2 2 1 2 4 1 2 2 4 1 1 1 3 1 3 4 3 5 7 7 7 7
19 17 13 15 14 9 12 6 5 4 4 3 6 4 5 7 7 7 6 4 3 2 3 1 1 3 3 1 3 1 2 4 3 2 3 3 3 4 5 4 5 6 6
19 19 15 16 15 13 9 10 6 5 4 4 3 7 5 5 7 8 7 6 4 3 3 3 0 2 2 1 2 1 1 1 2 3 2 3 3 4 4 5 6 5 7
19 19 18 17 18 13 11 8 9 9 6 5 5 6 6 4 4 6 6 6 6 4 3 3 3 0 2 1 1 1 2 1 1 2 1 2 3 4 5 5 5 5 7
Wind_Direction
170 149 161 139 128 129 138 142 129 119 112 110 104 100 99 103 99 101 98 100 98 100 103 100 96 93 95 97 98 96 102 104 104 98 89 84 87 100 93 90 90 89 89
131 144 155 141 133 122 111 121 124 125 115 109 108 107 104 99 99 101 98 101 105 104 105 113 107 102 98 102 107 107 108 113 112 104 98 91 90 91 90 91 89 92 90
130 134 143 135 134 120 117 124 125 124 119 122 116 112 109 100 104 102 95 98 99 101 109 109 106 113 109 107 108 123 118 105 109 107 103 96 88 90 94 94 98 98 98
127 133 131 138 132 131 128 124 127 124 126 126 130 115 104 106 97 102 99 100 101 103 106 102 105 107 108 103 106 120 112 108 122 128 93 89 93 93 96 96 99 99 99
136 129 140 141 138 133 131 130 133 137 135 128 114 113 112 114 106 102 100 100 101 99 94 100 96 102 104 92 86 72 58 66 91 99 93 89 83 99 104 99 99 100 102
121 130 136 135 124 125 123 121 122 125 127 126 125 119 120 112 108 107 101 100 99 101 101 100 101 97 92 81 67 71 41 99 90 91 88 90 101 107 100 100 98 99 98
122 133 136 133 124 125 124 118 120 123 123 126 131 126 120 113 105 99 101 96 96 97 102 105 106 104 91 77 77 57 45 108 97 94 92 90 95 101 102 102 101 96 94
128 130 132 129 129 122 119 119 121 125 119 127 122 126 120 111 102 102 104 108 106 102 101 102 106 109 95 81 77 43 35 101 101 96 96 95 105 102 104 104 106 105 104
128 126 126 130 131 127 130 134 128 125 123 126 136 129 122 119 115 114 111 112 107 99 93 92 101 102 97 100 45 32 31 91 103 108 106 92 105 105 109 113 111 114 112
130 137 132 133 126 121 126 137 128 132 138 145 145 141 135 128 127 119 122 122 121 115 112 104 72 79 63 18 30 24 38 96 95 99 98 108 113 112 111 104 108 111 104
141 142 144 152 151 138 129 145 140 145 149 143 158 151 134 100 152 142 135 130 125 129 128 115 84 59 49 47 20 31 72 109 104 99 102 119 115 114 112 111 108 107 104
150 154 154 160 157 149 145 148 148 161 146 167 160 149 163 155 171 141 152 137 137 135 123 88 95 112 27 58 27 17 151 121 117 113 109 117 120 115 114 116 120 109 112
157 161 160 159 159 164 144 166 165 159 169 194 167 134 133 42 13 85 41 102 94 137 143 120 117 342 297 18 356 85 295 117 131 122 139 127 124 127 128 126 121 127 120
160 159 149 153 161 154 147 167 177 172 173 187 183 101 114 274 339 75 58 67 16 63 58 4 337 273 312 301 278 302 138 128 132 126 144 133 137 136 135 133 133 137 137
139 141 140 143 158 135 141 179 182 175 182 197 141 130 150 165 185 35 57 129 162 116 21 309 285 233 241 279 280 181 138 135 134 139 141 150 147 147 146 144 146 151 155
145 132 134 147 168 132 190 187 166 174 191 141 126 126 131 139 134 130 233 182 139 126 215 153 245 246 232 246 218 81 135 142 148 148 156 162 160 157 159 162 166 173 177
149 141 142 148 137 139 113 105 136 133 126 125 134 148 146 126 127 137 180 175 143 163 191 170 217 160 102 298 94 96 102 145 149 151 162 165 171 179 182 181 182 185 188
141 144 142 139 129 141 153 113 105 123 129 124 115 140 128 154 296 96 144 158 154 164 178 206 174 115 110 255 36 291 198 150 171 159 162 174 176 188 197 198 192 204 211
145 148 148 139 143 150 150 166 103 134 130 165 137 138 172 177 203 74 134 136 149 157 144 140 239 181 164 186 222 187 213 177 190 165 178 186 183 189 198 211 204 207 214
146 158 138 146 150 149 160 159 127 160 146 147 143 150 178 163 140 67 103 99 91 94 147 170 144 202 132 229 287 146 195 190 215 160 195 191 185 186 196 193 201 212 219
152 159 146 145 159 149 154 147 183 169 167 125 161 169 176 176 127 102 101 121 119 145 119 104 92 133 278 203 63 352 314 250 227 211 207 184 186 193 188 190 188 198 214
161 158 155 156 160 157 163 160 171 170 190 158 165 181 172 156 142 124 135 120 117 116 120 118 120 62 1 109 125 149 3 335 314 235 213 185 220 172 179 199 195 196 205
164 163 157 160 163 155 171 162 205 151 98 115 167 171 180 152 147 143 161 122 113 112 130 148 119 93 68 316 199 132 52 230 351 321 222 175 182 151 197 197 191 191 201
167 167 154 160 168 167 171 184 168 175 165 176 162 169 168 162 149 153 150 167 157 127 140 198 139 142 124 14 330 164 175 163 137 4 317 281 244 233 174 210 198 204 197
165 171 165 159 169 177 169 182 184 182 177 170 167 157 173 176 161 164 165 170 170 134 160 168 238 176 130 137 164 273 253 1 99 127 289 300 304 256 242 206 207 197 203
169 171 173 164 176 177 180 175 188 190 198 171 169 170 179 165 166 171 163 163 165 156 191 177 174 196 171 224 329 17 104 118 250 78 85 291 218 270 221 226 216 206 210